| time (UTC) | temp F | wind direction | speed knots | gust knots | rain 1hr in | rain 24hr in | rain mn in | humidity % | barometer mb |
| 20260505012711 | 62 | 270 | 0.0 | 0.0 | 0.00 | 0.00 | 0.00 | 84 | 1012.1 |
| 20260505012147 | 63 | 203 | 0.9 | 1.7 | 0.00 | 0.00 | 0.00 | 84 | 1012.1 |
| 20260505011536 | 63 | 180 | 0.9 | 1.7 | 0.00 | 0.00 | 0.00 | 82 | 1011.8 |
| 20260505010914 | 64 | 225 | 0.0 | 0.9 | 0.00 | 0.00 | 0.00 | 81 | 1011.8 |
| 20260505010331 | 64 | 225 | 0.0 | 1.7 | 0.00 | 0.00 | 0.00 | 80 | 1011.8 |
| 20260505005751 | 65 | 225 | 0.0 | 0.0 | 0.00 | 0.00 | 0.00 | 79 | 1011.8 |
| 20260505005121 | 65 | 180 | 1.7 | 1.7 | 0.00 | 0.00 | 0.00 | 78 | 1011.8 |
| 20260505004534 | 66 | 203 | 1.7 | 1.7 | 0.00 | 0.00 | 0.00 | 77 | 1011.5 |
| 20260505003929 | 67 | 270 | 1.7 | 1.7 | 0.00 | 0.00 | 0.00 | 76 | 1011.5 |
| 20260505003354 | 67 | 203 | 0.9 | 0.9 | 0.00 | 0.00 | 0.00 | 74 | 1011.5 |
| 20260505002111 | 68 | 158 | 2.6 | 2.6 | 0.00 | 0.00 | 0.00 | 72 | 1011.8 |
| 20260505001513 | 70 | 203 | 1.7 | 2.6 | 0.00 | 0.00 | 0.00 | 69 | 1011.8 |
| 20260505000916 | 70 | 180 | 1.7 | 1.7 | 0.00 | 0.00 | 0.00 | 67 | 1011.8 |
| 20260505000318 | 73 | 203 | 2.6 | 2.6 | 0.00 | 0.00 | 0.00 | 61 | 1011.8 |
| 20260504235715 | 72 | 158 | 2.6 | 3.5 | 0.00 | 0.00 | 0.00 | 60 | 1011.5 |
| 20260504234528 | 75 | 90 | 0.9 | 1.7 | 0.00 | 0.00 | 0.00 | 57 | 1011.5 |
| 20260504233933 | 78 | 338 | 1.7 | 3.5 | 0.00 | 0.00 | 0.00 | 51 | 1011.5 |
| 20260504233341 | 78 | 270 | 2.6 | 3.5 | 0.00 | 0.00 | 0.00 | 51 | 1011.5 |
| 20260504232715 | 79 | 180 | 5.2 | 5.2 | 0.00 | 0.00 | 0.00 | 49 | 1011.5 |
| 20260504232153 | 80 | 315 | 3.5 | 3.5 | 0.00 | 0.00 | 0.00 | 48 | 1011.5 |
| 20260504231519 | 79 | 180 | 1.7 | 3.5 | 0.00 | 0.00 | 0.00 | 49 | 1011.5 |
| 20260504230952 | 79 | 315 | 1.7 | 5.2 | 0.00 | 0.00 | 0.00 | 49 | 1011.5 |
| 20260504225714 | 79 | 203 | 1.7 | 2.6 | 0.00 | 0.00 | 0.00 | 51 | 1011.5 |
| 20260504225147 | 80 | 338 | 0.9 | 5.2 | 0.00 | 0.00 | 0.00 | 50 | 1011.5 |
| 20260504224511 | 80 | 180 | 2.6 | 3.5 | 0.00 | 0.00 | 0.00 | 50 | 1011.8 |
| 20260504223935 | 80 | 203 | 2.6 | 3.5 | 0.00 | 0.00 | 0.00 | 49 | 1011.5 |
| 20260504223316 | 81 | 270 | 2.6 | 2.6 | 0.00 | 0.00 | 0.00 | 48 | 1011.8 |
| 20260504222753 | 81 | 180 | 1.7 | 6.1 | 0.00 | 0.00 | 0.00 | 49 | 1011.5 |
| 20260504222112 | 81 | 68 | 0.9 | 4.3 | 0.00 | 0.00 | 0.00 | 50 | 1011.5 |
| 20260504221522 | 83 | 225 | 4.3 | 5.2 | 0.00 | 0.00 | 0.00 | 47 | 1011.8 |
| 20260504220927 | 84 | 293 | 0.9 | 3.5 | 0.00 | 0.00 | 0.00 | 46 | 1011.5 |
| 20260504220316 | 83 | 23 | 4.3 | 4.3 | 0.00 | 0.00 | 0.00 | 47 | 1011.5 |
| 20260504215123 | 82 | 0 | 5.2 | 5.2 | 0.00 | 0.00 | 0.00 | 48 | 1011.8 |
| 20260504214552 | 81 | 270 | 1.7 | 3.5 | 0.00 | 0.00 | 0.00 | 49 | 1011.8 |
| 20260504213950 | 81 | 113 | 3.5 | 3.5 | 0.00 | 0.00 | 0.00 | 49 | 1011.8 |
| 20260504211527 | 81 | 0 | 4.3 | 8.7 | 0.00 | 0.00 | 0.00 | 48 | 1012.1 |
| 20260504210950 | 80 | 180 | 3.5 | 6.1 | 0.00 | 0.00 | 0.00 | 51 | 1011.8 |
| 20260504210330 | 81 | 45 | 5.2 | 9.6 | 0.00 | 0.00 | 0.00 | 49 | 1011.8 |
| 20260504205734 | 80 | 68 | 1.7 | 3.5 | 0.00 | 0.00 | 0.00 | 50 | 1011.8 |
| 20260504205140 | 80 | 248 | 2.6 | 9.6 | 0.00 | 0.00 | 0.00 | 52 | 1012.1 |
| 20260504204542 | 80 | 203 | 4.3 | 7.0 | 0.00 | 0.00 | 0.00 | 52 | 1012.1 |
| 20260504203931 | 79 | 203 | 2.6 | 4.3 | 0.00 | 0.00 | 0.00 | 53 | 1012.1 |
| 20260504202734 | 80 | 248 | 1.7 | 2.6 | 0.00 | 0.00 | 0.00 | 53 | 1012.1 |
| 20260504202114 | 79 | 0 | 1.7 | 3.5 | 0.00 | 0.00 | 0.00 | 54 | 1012.5 |
| 20260504201541 | 78 | 180 | 1.7 | 2.6 | 0.00 | 0.00 | 0.00 | 54 | 1012.5 |
| 20260504200320 | 77 | 203 | 2.6 | 4.3 | 0.00 | 0.00 | 0.00 | 56 | 1012.8 |
| 20260504195752 | 78 | 180 | 2.6 | 2.6 | 0.00 | 0.00 | 0.00 | 58 | 1012.8 |
| 20260504195124 | 77 | 113 | 0.9 | 2.6 | 0.00 | 0.00 | 0.00 | 60 | 1013.2 |
| 20260504194552 | 76 | 23 | 3.5 | 3.5 | 0.00 | 0.00 | 0.00 | 62 | 1013.2 |
| 20260504193936 | 75 | 23 | 1.7 | 1.7 | 0.00 | 0.00 | 0.00 | 63 | 1013.2 |
| 20260504193337 | 73 | 225 | 0.9 | 1.7 | 0.00 | 0.00 | 0.00 | 68 | 1013.5 |
| 20260504192722 | 72 | 23 | 1.7 | 1.7 | 0.00 | 0.00 | 0.00 | 70 | 1013.8 |
| 20260504192139 | 71 | 225 | 0.0 | 2.6 | 0.00 | 0.00 | 0.00 | 70 | 1013.8 |
| 20260504191533 | 69 | 203 | 2.6 | 2.6 | 0.00 | 0.00 | 0.00 | 77 | 1014.2 |
| 20260504190949 | 69 | 0 | 3.5 | 3.5 | 0.00 | 0.00 | 0.00 | 71 | 1014.2 |
| 20260504185733 | 71 | 0 | 3.5 | 5.2 | 0.00 | 0.00 | 0.00 | 60 | 1014.5 |
| 20260504184535 | 72 | 0 | 2.6 | 6.1 | 0.00 | 0.00 | 0.00 | 61 | 1013.8 |
| 20260504183943 | 74 | 270 | 2.6 | 6.1 | 0.00 | 0.00 | 0.00 | 56 | 1013.5 |
| 20260504183329 | 74 | 225 | 2.6 | 3.5 | 0.00 | 0.00 | 0.00 | 57 | 1013.8 |
| 20260504182741 | 74 | 248 | 1.7 | 2.6 | 0.00 | 0.00 | 0.00 | 57 | 1013.5 |
| 20260504182142 | 75 | 135 | 1.7 | 5.2 | 0.00 | 0.00 | 0.00 | 55 | 1013.5 |
| 20260504181512 | 76 | 270 | 3.5 | 5.2 | 0.00 | 0.00 | 0.00 | 55 | 1013.5 |
| 20260504180923 | 77 | 248 | 3.5 | 5.2 | 0.00 | 0.00 | 0.00 | 55 | 1013.5 |
| 20260504180320 | 76 | 225 | 0.9 | 1.7 | 0.00 | 0.00 | 0.00 | 54 | 1013.5 |
| 20260504175748 | 76 | 225 | 3.5 | 3.5 | 0.00 | 0.00 | 0.00 | 55 | 1013.5 |
| 20260504174534 | 75 | 315 | 7.8 | 7.8 | 0.00 | 0.00 | 0.00 | 54 | 1013.8 |
| 20260504173931 | 75 | 113 | 2.6 | 5.2 | 0.00 | 0.00 | 0.00 | 55 | 1013.8 |
| 20260504172713 | 74 | 338 | 3.5 | 3.5 | 0.00 | 0.00 | 0.00 | 55 | 1014.2 |
| 20260504172134 | 74 | 225 | 5.2 | 5.2 | 0.00 | 0.00 | 0.00 | 56 | 1014.2 |
| 20260504171554 | 72 | 270 | 3.5 | 7.0 | 0.00 | 0.00 | 0.00 | 58 | 1014.2 |
| 20260504170919 | 72 | 158 | 3.5 | 6.1 | 0.00 | 0.00 | 0.00 | 60 | 1014.5 |
| 20260504170335 | 72 | 248 | 1.7 | 4.3 | 0.00 | 0.00 | 0.00 | 63 | 1014.5 |
| 20260504160347 | 65 | 0 | 2.6 | 2.6 | 0.00 | 0.00 | 0.00 | 71 | 1016.5 |
| 20260504141236 | 61 | 293 | 0.0 | 2.6 | 0.00 | 0.00 | 0.00 | 71 | 1016.9 |
| 20260504140653 | 61 | 135 | 0.0 | 2.6 | 0.00 | 0.00 | 0.00 | 69 | 1016.9 |
| 20260504130633 | 53 | 248 | 0.0 | 2.6 | 0.00 | 0.00 | 0.00 | 83 | 1016.9 |
| 20260504110627 | 42 | 225 | 0.0 | 0.0 | 0.00 | 0.00 | 0.00 | 99 | 1016.2 |
| 20260504081814 | 43 | 203 | 0.0 | 0.0 | 0.00 | 0.00 | 0.00 | 99 | 1017.2 |
| 20260504081216 | 42 | 203 | 0.0 | 0.0 | 0.00 | 0.00 | 0.00 | 99 | 1017.2 |
| 20260504080626 | 42 | 180 | 0.0 | 0.0 | 0.00 | 0.00 | 0.00 | 99 | 1017.2 |
| 20260504045417 | 48 | 270 | 0.0 | 0.0 | 0.00 | 0.00 | 0.00 | 90 | 1018.6 |
| 20260504044831 | 48 | 225 | 0.0 | 0.0 | 0.00 | 0.00 | 0.00 | 88 | 1018.2 |
| 20260504044221 | 48 | 248 | 0.0 | 0.0 | 0.00 | 0.00 | 0.00 | 89 | 1018.2 |
| 20260504043642 | 48 | 248 | 0.0 | 0.0 | 0.00 | 0.00 | 0.00 | 89 | 1018.2 |
| 20260504043048 | 48 | 270 | 0.0 | 0.0 | 0.00 | 0.00 | 0.00 | 87 | 1018.6 |
| 20260504042431 | 48 | 270 | 0.0 | 0.0 | 0.00 | 0.00 | 0.00 | 86 | 1018.2 |
| 20260504041228 | 48 | 293 | 0.0 | 0.0 | 0.00 | 0.00 | 0.00 | 84 | 1018.2 |
| 20260504040644 | 48 | 270 | 0.0 | 0.0 | 0.00 | 0.00 | 0.00 | 85 | 1018.2 |
| 20260504040029 | 49 | 338 | 0.0 | 0.0 | 0.00 | 0.00 | 0.00 | 84 | 1018.2 |
| 20260504035428 | 49 | 0 | 0.0 | 0.0 | 0.00 | 0.00 | 0.00 | 82 | 1018.2 |
| 20260504034214 | 49 | 293 | 0.0 | 0.0 | 0.00 | 0.00 | 0.00 | 80 | 1018.2 |
| 20260504033612 | 49 | 270 | 0.0 | 0.0 | 0.00 | 0.00 | 0.00 | 81 | 1018.2 |
| 20260504033036 | 49 | 270 | 0.0 | 0.0 | 0.00 | 0.00 | 0.00 | 82 | 1018.2 |
| 20260504031244 | 49 | 225 | 0.0 | 0.0 | 0.00 | 0.00 | 0.00 | 79 | 1018.2 |
| 20260504030018 | 49 | 293 | 0.0 | 0.0 | 0.00 | 0.00 | 0.00 | 79 | 1018.2 |
| 20260504025413 | 49 | 248 | 0.0 | 0.0 | 0.00 | 0.00 | 0.00 | 80 | 1018.2 |
| 20260504024824 | 49 | 270 | 0.0 | 0.0 | 0.00 | 0.00 | 0.00 | 80 | 1018.2 |
| 20260504024220 | 49 | 203 | 0.0 | 0.0 | 0.00 | 0.00 | 0.00 | 78 | 1017.9 |
| 20260504023633 | 49 | 225 | 0.0 | 0.0 | 0.00 | 0.00 | 0.00 | 78 | 1017.9 |
| 20260504023027 | 49 | 203 | 0.0 | 0.0 | 0.00 | 0.00 | 0.00 | 80 | 1018.2 |
| 20260504022437 | 49 | 203 | 0.0 | 0.0 | 0.00 | 0.00 | 0.00 | 78 | 1017.6 |
| 20260504021834 | 49 | 203 | 0.0 | 0.0 | 0.00 | 0.00 | 0.00 | 78 | 1017.6 |
| 20260504020620 | 49 | 225 | 0.0 | 0.0 | 0.00 | 0.00 | 0.00 | 78 | 1017.9 |
| 20260504020020 | 49 | 180 | 0.0 | 0.0 | 0.00 | 0.00 | 0.00 | 78 | 1017.9 |
| 20260504015443 | 49 | 203 | 0.0 | 0.0 | 0.00 | 0.00 | 0.00 | 78 | 1017.9 |
| 20260504014826 | 49 | 248 | 0.0 | 0.0 | 0.00 | 0.00 | 0.00 | 77 | 1017.9 |
| 20260504014244 | 49 | 225 | 0.0 | 0.0 | 0.00 | 0.00 | 0.00 | 77 | 1017.9 |
| 20260504013650 | 49 | 203 | 0.0 | 0.0 | 0.00 | 0.00 | 0.00 | 77 | 1017.9 |